www.pogodaiklimat.ru

Погода и климат >> Архив погоды >> Россия >> Якутия >> Оленек


ПОГОДА в Оленеке

АРХИВ ПОГОДЫ в Оленеке

Время (UTC), дата Ветер
(напр.,м/с)
 
Видим.   Явления Облачность Т
(С)
Тd
(С)
f
(%)
Тe
(С)
Тes
(С)
Комфортность P
(гПа)
Po
(гПа)
Тmin
(С)
Tmax
(С)
R
(мм)
R24
(мм)
S
(см)
18 13.08 Ю 5 н/о н/о +21.7 +11.8 53 +24 +24 комфорт 1005.7 980.6
21 13.08 ЮЗ 2 н/о н/о +18.7 +11.7 64 +20 +20 1007.1 981.7
00 14.08 СЗ 2 10 км мгла {туман} 10/0
[Cs]
+18.0 +13.8 76 +19 +21 1008.7 983.3 +17.3
03 14.08 СЗ 2 50 км {туман} 10/0
[As op]
+20.2 +14.8 71 +23 +25 комфорт 1009.2 983.9
06 14.08 С 5 50 км {туман} 10/5
[Sc Ac und]
+20.4 +14.2 68 +23 +23 комфорт 1009.6 984.2
09 14.08 СВ 6-10
{13}
50 км 10/5 1000 м
[Sc Ac und]
+14.4 +10.0 75 +13 +13 1010.7 984.9
12 14.08 СВ 3
{10}
н/о н/о +12.1 +10.2 88 +10 +10 1010.5 984.4 +20.8
15 14.08 СВ 4
{10}
н/о н/о +11.0 +9.3 89 +9 +9 1009.6 983.5
00 15.08 С 3
{11}
10 км слабый ливневой дождь 10/8 180 м
[Cb cap As op]
+7.6 +7.0 96 +5 +5 1007.1 980.7 +7.6 8
03 15.08 С 3 4000 м дымка {ливн. осадки} 10/10 210 м
[St]
+6.8 +6.1 95 +4 +4 1008.7 982.2 +6.8
06 15.08 СЗ 3 4000 м слабая морось 10/10 300 м
[St]
+6.9 +5.8 93 +4 +4 1011.3 984.8
09 15.08 СЗ 4 н/о н/о +7.0 +5.8 92 +3 +3 1013.7 987.0
12 15.08 СЗ 2 н/о н/о +6.1 +4.5 89 +4 +4 1016.0 989.2 +7.8
15 15.08 СЗ 2 н/о н/о +5.4 +4.1 91 +3 +3 1017.5 990.6
18 15.08 З 1 н/о н/о +5.2 +4.3 94 +4 +4 1017.9 991.0
21 15.08 З 1 н/о н/о +5.3 +4.3 93 +4 +4 1017.9 991.4
00 16.08 ЮЗ 1 50 км 10/8 800 м
[Sc Ac und]
+6.7 +5.1 90 +6 +6 1018.4 991.6 +5.1
03 16.08 ЮЗ 3 50 км 10/4 600 м
[Sc diur, vesp Ac As Ci sp]
+10.6 +4.3 65 +9 +10 1017.3 990.9
06 16.08 Ю 3 50 км 10/4 600 м
[Sc diur, vesp Ci sp]
+13.0 +4.8 57 +12 +14 1016.2 990.0
09 16.08 ЮЗ 4 50 км 8/4 600 м
[Sc diur, vesp Cs]
+14.7 +4.3 50 +14 +15 1014.9 989.0
12 16.08 Ю 2 н/о н/о +13.2 +4.6 56 +13 +13 1014.7 988.6 +14.9
15 16.08 ЮВ 1 н/о н/о +9.1 +4.4 72 +9 +9 1015.0 988.5
18 16.08 В 1 н/о н/о +8.8 +4.6 75 +8 +8 1014.3 987.8
21 16.08 В 2 н/о н/о +7.0 +4.6 85 +5 +5 1013.9 987.2
00 17.08 Ю 2 50 км 4/0
[Ac trans]
+11.4 +6.2 70 +10 +12 1013.3 987.1 +6.9
03 17.08 Ю 3 50 км 4/3 1000 м
[Cu hum Ac trans]
+17.1 +6.5 50 +17 +20 1011.7 986.0
06 17.08 ЮЗ 4 50 км 6/6 1000 м
[Sc]
+18.5 +2.3 34 +19 +20 1010.6 985.0
09 17.08 ЮЗ 4 50 км 6/6 1000 м
[Sc]
+18.9 +3.0 35 +19 +20 1009.9 984.4
12 17.08 Ю 2 н/о н/о +16.6 +4.5 45 +17 +17 1009.8 984.1 +19.0
18 17.08 Ю 3 н/о н/о +13.2 +3.0 50 +12 +12 1009.7 983.7
21 17.08 Ю 2 н/о н/о +12.0 +2.7 53 +11 +11 1009.7 983.6
00 18.08 Ю 3 50 км 10/3 1000 м
[Sc Ac und]
+11.8 +3.6 57 +10 +11 1009.6 983.4 +11.5
03 18.08 Ю 2 50 км 10/3 1000 м
[Sc Ac und]
+13.2 +6.1 62 +13 +14 1009.4 983.3
06 18.08 ЮЗ 2 50 км {дождь} 10/6 720 м
[Sc Ac und]
+13.0 +8.0 72 +12 +13 1009.2 983.3
09 18.08 З 2 50 км {дождь} 10/8 700 м
[Sc Ac und]
+13.7 +10.3 80 +13 +13 1009.5 983.6
12 18.08 С 6 н/о н/о +10.5 +9.8 95 +7 +7 1010.3 984.1
15 18.08 СЗ 1 н/о н/о +8.7 +8.3 97 +8 +8 1011.6 985.2
18 18.08 З 1 н/о н/о +7.9 +7.3 96 +7 +7 1012.6 986.1
21 18.08 З 2 н/о н/о +6.1 +5.8 98 +3 +3 1013.4 986.7
00 19.08 З 2 н/о н/о +7.5 +7.0 97 +5 +5 1014.1 987.5 +5.8
03 19.08 З 2 н/о н/о +12.4 +5.1 61 +12 +12 1013.7 987.5
06 19.08 З 2 н/о н/о +13.3 +3.5 51 +13 +13 1013.2 987.1
09 19.08 З 2 н/о н/о +12.0 +4.4 60 +11 +11 1013.9 987.7
12 19.08 В 1 н/о н/о +11.6 +5.4 66 +12 +12 1014.0 987.8 +14.4
15 19.08 В 2 н/о н/о +9.3 +5.2 76 +8 +8 1014.2 987.8
18 19.08 В 2 н/о н/о +6.2 +4.7 90 +4 +4 1014.1 987.3
21 19.08 В 2 н/о н/о +4.8 +3.8 93 +2 +2 1013.9 987.1
00 20.08 ЮВ 1 н/о н/о +8.0 +4.3 77 +7 +7 1013.2 986.7 +4.7
03 20.08 Ю 2 н/о н/о +13.2 +5.3 59 +13 +13 1011.5 985.5
06 20.08 ЮЗ 4 н/о н/о +16.3 +4.7 46 +16 +16 1009.1 983.4
09 20.08 Ю 3 н/о н/о +16.0 +3.9 44 +16 +16 1007.3 981.7
12 20.08 ЮВ 3 10 км слабый дождь 10/0
[Ac As]
+12.9 +7.1 68 +12 +12 1005.8 979.9 +16.7 0.5

 

Местоположение метеостанции Оленек (Якутия, Россия): широта 68.50 долгота 112.40 высота над уровнем моря 220 м.

В архиве по умолчанию представлена погода в Оленеке за последнюю неделю. Архивные данные за месяц целиком и за предыдущие месяцы, начиная с января 2011 года, Вы можете получить, выбрав интересующий диапазон дат из раскрывающегося списка и нажав кнопку "Ввод!".

Внимание! Время в таблицах - всемирное. Для получения местного времени необходимо прибавить поправку, которая в Оленеке равна 9 ч.

Смотрите также архив погоды в соседних городах и на ближайших метеорологических станциях:

Погода в Джалинде (Якутия, Россия) (191 км)
Погода в Полярном (Якутия, Россия) (197 км)
Погода в Ярольине (Якутия, Россия) (224 км)
Погода в Сухане (Якутия, Россия) (240 км)
Погода в Шелагонцах (Якутия, Россия) (262 км)
Погода в Эйке (Якутия, Россия) (349 км)
Погода в Саскылахе (Якутия, Россия) (391 км)
Погода в Хабардино (Якутия, Россия) (434 км)
Погода в Джарджане (Якутия, Россия) (470 км)
Погода в Жиганске (Якутия, Россия) (498 км)

Пояснения к столбцам:

Ветер - указаны скорость ветра в м/с - средняя за 10 мин, порывы в срок и между сроками (в фигурных скобках) и направление, откуда дует ветер: С - северный, СВ - северо-восточный, В - восточный, ЮВ - юго-восточный, Ю - южный, ЮЗ - юго-западный, З - западный, СЗ - северо-западный.
Видимость - горизонтальная дальность видимости в метрах или километрах. При видимости от 1 до 10 км при отсутствии осадков обычно наблюдается дымка, при ухудшении видимости до 1 км и менее - туман. В сухую погоду видимость может ухудшаться дымом, пылью или мглою.
Явления - указаны атмосферные явления, наблюдавшиеся в срок или в последний час перед сроком; фигурными скобками обозначены явления, наблюдавшиеся между сроками (за 1-3 часа до срока); квадратными скобками обозначены град или гололедные отложения с указанием их диаметра в мм.
Облачность - указаны через наклонную черту общая и нижняя облачность в баллах и высота нижней границы облаков в метрах; квадратными скобками обозначены формы облаков: Ci - перистые, Cs - перисто-слоистые, Cc - перисто-кучевые, Ac - высококучевые, As - высокослоистые, Sc - слоисто-кучевые, Ns - слоисто-дождевые, Cu - кучевые, Cb - кучево-дождевые. Подробнее классификацию облаков см. в Атласе облаков (PDF).
T - Температура воздуха - температура, измеренная на высоте 2 м над землей.
Td - Температура точки росы - температура, при понижении до которой содержащийся в воздухе водяной пар достигнет насыщения.
f - Относительная влажность воздуха - влажноcть воздуха, измеренная на высоте 2 м над землей.
Te - Эффективная температура - температура, которую ощущает одетый по сезону человек в тени. Характеристика душности погоды. При расчете учитывается влияние влажности воздуха и скорости ветра на теплоощущения человека.
Tes - Эффективная температура на солнце - температура, которую ощущает человек, с поправкой на солнечный нагрев. Характеристика знойности погоды. Зависит от высоты солнца над горизонтом, облачности и скорости ветра. Ночью, в пасмурную погоду, а также при ветре 12 м/с и более поправка равна нулю.
P - Атмосферное давление - приведенное к уровню моря атмосферное давление.
Po - Атмосферное давление - измеренное на уровне метеостанции атмосферное давление.
Tmin - Минимальная температура - минимум температуры воздуха на высоте 2 м над землей.
Tmax - Максимальная температура - максимум температуры воздуха на высоте 2 м над землей.
R - Количество осадков - Количество выпавших осадков за период времени, мм. При наведении курсора мыши на число - период времени, за который выпало указанное количество осадков.
R24 - Количество осадков - Количество выпавших осадков за 24 часа, мм.
S - Снежный покров - Высота снежного покрова, см. При наведении курсора мыши на число - состояние снежного покрова и степень покрытия местности в баллах.